Location: Newark
(50.4348°N, 30.5552°E)
Time: 05:26:12
(UTC+00:00)

Tiros 1 despin weight - Pass Details

Date: 01 February 2020
Orbit: 594 x 642 km, 48.2° (Epoch: 27 February)

Event Time Altitude Azimuth Distance (km) Brightness Sun altitude
Rises 06:34:10 0° 216° (SW) 2,830 ? 7.3°
Reaches altitude 10° 06:36:44 10° 203° (SSW) 1,936 ? 7.6°
Maximum altitude 06:40:21 25° 148° (SSE) 1,236 ? 8.1°
Drops below altitude 10° 06:44:01 10° 93° (E) 1,965 ? 8.5°
Sets 06:46:39 0° 80° (E) 2,882 ? 8.8°
